Погода в Туркестане

Хотите узнать прогноз погоды в Туркестане? Тогда Вам сюда: Погода в Туркестане

Поиск расширенной информации на нашем сайте:

Полезная информация:

Новости сайта



02.01.2020
Опубликован Долгосрочный прогноз погоды по городам России и ближнего зарубежья на январь 2020 года.
Карты: Прогноз на январь и февраль 2020 года, Сравнение прогнозируемой аномалии приземной температуры воздуха на январь 2020 года по разным моделям.




Погода в Туркестане - сегодня

Время (UTC), дата Ветер
(°,м/с) 
Видим.   Явления Облачность Т
(°С)
Тd
(°С)
f(%) Тe
(°С)
Pmin
(гПа)
dP
(гПа)
Po
(мм)
O2
(г/м3)
Тmin Tmax R s Состояние
почвы
15 02.07.20 310 (СЗ) 11-15{17}  10 км    3/0 средняя 
[Ac lent]
+20.9 +7.4 42 +21  1013.5  3.2  742  277    +28.2       
18 02.07.20 260 (З) 3{16}  н/о    4/0 средняя 
[Ac lent]
+18.9 +8.1 49 +20  1014.9  1.1  743  279    +28.2       
21 02.07.20 250 (З) н/о    3/0 средняя 
[Ac lent]
+15.7 +7.8 59 +16  1015  -0.1  743  282           
00 03.07.20 280 (З) 20000 м    1/0 средняя 
[Ac trans]
+14.3 +6.7 60 +15  1016  0.8  744  284           
03 03.07.20 320 (СЗ) 20000 м    ясно 
+19.5 +8.1 48 +20  1016.1  0.6  744  278           
06 03.07.20 270 (З) 20000 м    ясно 
+24.7 +7.6 34 +25  1015.3  -0.4  744  274  +14.1         
09 03.07.20 270 (З) 20000 м    1/1 1000 м 
[Cu hum]
+28 +7.4 27 +28  1014.2  -0.8  743  270           
12 03.07.20 280 (З) 20000 м    1/1 1000 м 
[Cu hum]
+30.2 -1.6 13 +30  1012.4  -1.7  742  269           
15 03.07.20 310 (СЗ) 20000 м    ясно 
+27.3 -2.3 14 +27  1012  -0.6  742  272    +30.4       
18 03.07.20 350 (С) н/о    ясно 
+19 +2.1 32 +20  1013.1  0.5  742  279    +30.4       
21 03.07.20 310 (СЗ) н/о    ясно 
+16.7 +1.8 37 +18  1012.8  -0.5  742  281           
00 04.07.20 тихо ()   20000 м    ясно 
+16.4 +2.9 40 +16  1012.9  0.1  742  281           
03 04.07.20 300 (СЗ) 20000 м    1/0 верхняя 
[Ci sp]
+24.9 +5.4 28 +25  1012.4  0.2  742  273           
06 04.07.20 330 (СЗ) 20000 м    1/0 верхняя 
[Ci sp]
+29.3 +5 21 +29  1011.4  -0.7  741  269  +15.3         
09 04.07.20 350 (С) 20000 м    ясно 
+31.5 +1.8 15 +32  1009.9  -1.3  740  267           
12 04.07.20 340 (С) 20000 м    ясно 
+31 +2.3 16 +31  1008.5  -1.4  739  267           
15 04.07.20 330 (СЗ) 20000 м    ясно 
+27.1 +4.4 23 +27  1008.4  -0.4  739  270    +32.5       
18 04.07.20 330 (СЗ) н/о    ясно 
+20.9 +6.6 39 +21  1009.1  0.3  739  276    +32.5       
21 04.07.20 350 (С) н/о    ясно 
+17.4 +5.8 46 +18  1008.4  -1  738  279           
00 05.07.20 тихо ()   20000 м    3/0 верхняя 
[Ci sp]
+15.6 +6.9 56 +16  1007.9  -0.6  738  280           
03 05.07.20 340 (С) 20000 м    3/0 верхняя 
[Ci sp]
+24.4 +7.4 34 +24  1007.3  0.1  738  272           
06 05.07.20 280 (З) 20000 м    3/3 1000 м 
[Cu hum]
+29.9 +5.6 22 +30  1006.1  -0.8  737  267  +15.1         
09 05.07.20 270 (З) 20000 м    8/5 1000 м верхняя 
[Cu med, cong|Ci sp]
+32.5 +5.6 19 +33  1004.1  -1.8  736  264           
12 05.07.20 100 (В) 10 км  в посл. час гроза{ливн. осадки}  9/6 600 м кучево-дожд., верхняя 
[Cb cap|Ci sp]
+30.6 +7.6 24 +31  1003.2  -1  735  265           
15 05.07.20 050 (СВ) 20000 м    4/3 600 м кучево-дожд., средняя 
[Cb cap|Ac lent]
+26 +9.9 36 +27  1005.5  737  269    +33.7  0.0     
Время (UTC), дата Ветер
(°,м/с) 
Видим.   Явления Облачность Т
(°С)
Тd
(°С)
f(%) Тe
(°С)
Pmin
(гПа)
dP
(гПа)
Po
(мм)
O2
(г/м3)
Тmin Tmax R s Состояние
почвы

Для получения пояснительной информации подведите курсор к названию столбца.

ПОГОДА в Туркестане - архив

Всё, что Вы хотите узнать о погоде в Туркестане - удобно и подробно!

Выберите нужную дату (начиная с 1 января 2019* года) и нажмите кнопку "Найти".
Будут отображены архивные сводки погоды по пункту Туркестан, начиная с указанной даты.


Отображать данные в формате CSV (для использования в таблицах Excel)


Внимание! Наш архив погоды предназначен исключительно для личного некоммерческого использования в познавательных целях. Если Вам необходимы официальные справки о состоянии погоды (для производственных, юридических, коммерческих и т.п. целей), обращайтесь в органы Росгидромета.

*Примечание: данная дата относится к архиву по метеостанциям СССР (Россия, СНГ, Балтия).
Архив по метеостанциям Зарубежной Европы и Азии (кроме Китая) хранится 10 дней, по другим регионам земного шара (Китай, Африка, Америка, Австралия, Океания) - 1 день.

Туркестан - район местоположения метеостанции


Название, широта, долгота, высота метеостанции:
Туркестан 43.3°ш. 68.2°д. 207 м над ур. моря [Казахстан]

Дополнительная информация

В oтличие oт бoльшинства пoгoдных сайтoв мы публикуем пoдрoбную метеoинфoрмацию в детальнoм прoфессиoнальнoм фoрмате.

Характеристики температуры и влажнoсти вoздуха измеряются на высoте 2 м в тени вдали oт зданий и деревьев.
Скoрoсть ветра измеряется на высoте 10 м (на урoвне рoста челoвека скoрoсть ветра ниже в 1.5-2 раза). Если метеoстанция нахoдится в гoрoде или в лесу, тo скoрoсть ветра занижена на 2-4 м/с пo сравнению с oткрытым местoм. Скoрoсть ветра над акватoриями крупных рек и oзёр, а также на вершинах хoлмoв на 2-5 м/с выше, чем в oбычных услoвиях.
Атмoсфернoе давление в разных тoчках местнoсти мoжет значительнo oтличаться oт давления на метеoстанции, в зависимoсти oт услoвий рельефа (при пoдъёме на 10 м давление пoнижается примернo на 1 мм рт.ст.).